Location: Moscow
(55.7500°N, 37.5830°E)
Time: 05:27:05
(UTC+03:00)

Vanguard 1 Rocket - Pass Details

Date: 08 December 2021
Orbit: 651 x 4225 km, 34.3° (Epoch: 26 January)

Event Time Altitude Azimuth Distance (km) Brightness Sun altitude
Exits shadow 06:56:16 - 256° (WSW) 5,419 10.9 -13.9°
Reaches altitude 10° 06:58:14 10° 250° (WSW) 5,203 10.8 -13.7°
Maximum altitude 07:10:27 26° 202° (SSW) 5,143 11.2 -12.1°
Drops below altitude 10° 07:27:32 10° 157° (SSE) 7,312 12.8 -9.9°
Sets 07:35:13 0° 147° (SSE) 8,462 13.5 -8.9°
